• In Österreich
  • Länderverzeichnis
  • Für 7 Tage
  • Wassertemperatur
  • Satellitenkarten
  • Wetterkarte
  • News
  • Widgets
  • user-avatar
    Anmelden

    Stündliche Wetter Luksor

    Heute, 13 November, Dienstag

    Zeit Temperatur Niederschläge Wind Luftdruck Luftfeuchtigkeit
    00:00 +21°C° 0 mm 2 m/S 754 mmHg 33%
    01:00 +21°C° 0 mm 1 m/S 753 mmHg 35%
    02:00 +21°C° 0 mm 1 m/S 753 mmHg 38%
    03:00 +20°C° 0 mm 1 m/S 753 mmHg 40%
    04:00 +20°C° 0 mm 1 m/S 753 mmHg 42%
    05:00 +19°C° 0 mm 1 m/S 753 mmHg 43%
    06:00 +21°C° 0 mm 1 m/S 753 mmHg 41%
    07:00 +22°C° 0 mm 1 m/S 753 mmHg 38%
    08:00 +23°C° 0 mm 1 m/S 753 mmHg 36%
    09:00 +25°C° 0 mm 2 m/S 753 mmHg 33%
    10:00 +26°C° 0 mm 2 m/S 753 mmHg 31%
    11:00 +28°C° 0 mm 3 m/S 753 mmHg 28%
    12:00 +28°C° 0 mm 3 m/S 752 mmHg 26%
    13:00 +29°C° 0 mm 4 m/S 752 mmHg 24%
    14:00 +30°C° 0 mm 4 m/S 751 mmHg 22%
    15:00 +29°C° 0 mm 4 m/S 751 mmHg 23%
    16:00 +28°C° 0 mm 4 m/S 751 mmHg 24%
    17:00 +27°C° 0 mm 4 m/S 751 mmHg 25%
    18:00 +26°C° 0 mm 4 m/S 751 mmHg 26%
    19:00 +25°C° 0 mm 4 m/S 751 mmHg 27%
    20:00 +23°C° 0 mm 4 m/S 752 mmHg 28%
    21:00 +22°C° 0 mm 3 m/S 752 mmHg 30%
    22:00 +21°C° 0 mm 3 m/S 752 mmHg 31%
    23:00 +21°C° 0 mm 3 m/S 752 mmHg 32%

    Morgen, 14 November, Mittwoch

    Zeit Temperatur Niederschläge Wind Luftdruck Luftfeuchtigkeit
    00:00 +20°C° 0 mm 3 m/S 752 mmHg 34%
    01:00 +20°C° 0 mm 3 m/S 752 mmHg 37%
    02:00 +19°C° 0 mm 3 m/S 751 mmHg 39%
    03:00 +19°C° 0 mm 2 m/S 751 mmHg 41%
    04:00 +18°C° 0 mm 2 m/S 751 mmHg 43%
    05:00 +18°C° 0 mm 2 m/S 751 mmHg 45%
    06:00 +19°C° 0 mm 2 m/S 751 mmHg 43%
    07:00 +20°C° 0 mm 2 m/S 751 mmHg 41%
    08:00 +21°C° 0 mm 2 m/S 752 mmHg 39%
    09:00 +22°C° 0 mm 3 m/S 752 mmHg 37%
    10:00 +25°C° 0 mm 4 m/S 752 mmHg 34%
    11:00 +26°C° 0 mm 4 m/S 752 mmHg 31%
    12:00 +27°C° 0 mm 5 m/S 751 mmHg 29%
    13:00 +27°C° 0 mm 5 m/S 751 mmHg 28%
    14:00 +28°C° 0 mm 6 m/S 750 mmHg 27%
    15:00 +27°C° 0 mm 5 m/S 750 mmHg 30%
    16:00 +26°C° 0 mm 5 m/S 750 mmHg 33%
    17:00 +25°C° 0 mm 5 m/S 750 mmHg 36%
    18:00 +23°C° 0 mm 5 m/S 751 mmHg 39%
    19:00 +23°C° 0 mm 4 m/S 751 mmHg 42%
    20:00 +22°C° 0 mm 4 m/S 752 mmHg 45%
    21:00 +21°C° 0 mm 3 m/S 752 mmHg 46%
    22:00 +21°C° 0 mm 3 m/S 752 mmHg 48%
    23:00 +20°C° 0 mm 3 m/S 752 mmHg 49%

    übermorgen, 15 November, Donnerstag

    Zeit Temperatur Niederschläge Wind Luftdruck Luftfeuchtigkeit
    00:00 +19°C° 0 mm 2 m/S 752 mmHg 50%
    01:00 +19°C° 0 mm 2 m/S 752 mmHg 51%
    02:00 +18°C° 0 mm 2 m/S 752 mmHg 53%
    03:00 +18°C° 0 mm 2 m/S 752 mmHg 54%
    04:00 +18°C° 0 mm 2 m/S 752 mmHg 55%
    05:00 +17°C° 0 mm 2 m/S 752 mmHg 56%
    06:00 +18°C° 0 mm 2 m/S 752 mmHg 53%
    07:00 +19°C° 0 mm 2 m/S 753 mmHg 50%
    08:00 +20°C° 0 mm 2 m/S 753 mmHg 47%
    09:00 +21°C° 0 mm 3 m/S 753 mmHg 44%
    10:00 +22°C° 0 mm 3 m/S 753 mmHg 40%
    11:00 +25°C° 0 mm 4 m/S 753 mmHg 36%
    12:00 +25°C° 0 mm 4 m/S 753 mmHg 34%
    13:00 +26°C° 0 mm 4 m/S 752 mmHg 31%
    14:00 +27°C° 0 mm 4 m/S 752 mmHg 29%
    15:00 +26°C° 0 mm 3 m/S 752 mmHg 31%
    16:00 +26°C° 0 mm 3 m/S 752 mmHg 32%
    17:00 +25°C° 0 mm 3 m/S 752 mmHg 34%
    18:00 +24°C° 0 mm 3 m/S 753 mmHg 36%
    19:00 +24°C° 0 mm 3 m/S 753 mmHg 39%
    20:00 +22°C° 0 mm 3 m/S 754 mmHg 41%
    21:00 +21°C° 0 mm 3 m/S 754 mmHg 43%
    22:00 +21°C° 0 mm 3 m/S 754 mmHg 46%
    23:00 +20°C° 0 mm 2 m/S 754 mmHg 48%

    16 November, Freitag

    Zeit Temperatur Niederschläge Wind Luftdruck Luftfeuchtigkeit
    00:00 +20°C° 0 mm 2 m/S 754 mmHg 50%
    01:00 +19°C° 0 mm 2 m/S 754 mmHg 52%
    02:00 +19°C° 0 mm 2 m/S 754 mmHg 54%
    03:00 +19°C° 0 mm 2 m/S 754 mmHg 56%
    04:00 +18°C° 0 mm 2 m/S 754 mmHg 58%
    05:00 +18°C° 0 mm 2 m/S 754 mmHg 60%
    06:00 +19°C° 0 mm 2 m/S 755 mmHg 57%
    07:00 +20°C° 0 mm 2 m/S 755 mmHg 54%
    08:00 +21°C° 0 mm 2 m/S 756 mmHg 51%
    09:00 +23°C° 0 mm 2 m/S 756 mmHg 46%
    10:00 +24°C° 0 mm 2 m/S 756 mmHg 41%
    11:00 +26°C° 0 mm 3 m/S 756 mmHg 36%
    12:00 +26°C° 0 mm 3 m/S 755 mmHg 33%
    13:00 +27°C° 0 mm 2 m/S 755 mmHg 30%
    14:00 +28°C° 0 mm 2 m/S 754 mmHg 27%
    15:00 +27°C° 0 mm 2 m/S 754 mmHg 27%
    16:00 +26°C° 0 mm 2 m/S 754 mmHg 28%
    17:00 +26°C° 0 mm 2 m/S 754 mmHg 28%
    18:00 +25°C° 0 mm 2 m/S 755 mmHg 29%
    19:00 +24°C° 0 mm 2 m/S 755 mmHg 31%
    20:00 +23°C° 0 mm 2 m/S 755 mmHg 32%
    21:00 +21°C° 0 mm 2 m/S 755 mmHg 35%
    22:00 +21°C° 0 mm 2 m/S 755 mmHg 38%
    23:00 +20°C° 0 mm 2 m/S 755 mmHg 41%

    17 November, Samstag

    Zeit Temperatur Niederschläge Wind Luftdruck Luftfeuchtigkeit
    00:00 +19°C° 0 mm 2 m/S 755 mmHg 44%
    01:00 +19°C° 0 mm 2 m/S 755 mmHg 47%
    02:00 +19°C° 0 mm 1 m/S 755 mmHg 50%
    03:00 +19°C° 0 mm 1 m/S 755 mmHg 51%
    04:00 +18°C° 0 mm 1 m/S 755 mmHg 53%
    05:00 +18°C° 0 mm 1 m/S 755 mmHg 54%
    06:00 +19°C° 0 mm 1 m/S 755 mmHg 50%
    07:00 +20°C° 0 mm 1 m/S 756 mmHg 46%
    08:00 +22°C° 0 mm 1 m/S 756 mmHg 43%
    09:00 +23°C° 0 mm 1 m/S 756 mmHg 39%
    10:00 +25°C° 0 mm 1 m/S 756 mmHg 35%
    11:00 +26°C° 0 mm 2 m/S 755 mmHg 31%
    12:00 +27°C° 0 mm 2 m/S 755 mmHg 28%
    13:00 +28°C° 0 mm 2 m/S 754 mmHg 25%
    14:00 +29°C° 0 mm 2 m/S 753 mmHg 22%
    15:00 +28°C° 0 mm 2 m/S 753 mmHg 23%
    16:00 +27°C° 0 mm 2 m/S 753 mmHg 25%
    17:00 +26°C° 0 mm 2 m/S 753 mmHg 26%
    18:00 +25°C° 0 mm 2 m/S 754 mmHg 27%
    19:00 +24°C° 0 mm 2 m/S 754 mmHg 28%
    20:00 +23°C° 0 mm 2 m/S 755 mmHg 30%
    21:00 +23°C° 0 mm 2 m/S 754 mmHg 31%
    22:00 +21°C° 0 mm 2 m/S 754 mmHg 31%
    23:00 +20°C° 0 mm 2 m/S 754 mmHg 32%

    18 November, Sonntag

    Zeit Temperatur Niederschläge Wind Luftdruck Luftfeuchtigkeit
    00:00 +20°C° 0 mm 2 m/S 754 mmHg 33%
    01:00 +20°C° 0 mm 1 m/S 754 mmHg 34%
    02:00 +20°C° 0 mm 1 m/S 753 mmHg 34%
    03:00 +19°C° 0 mm 1 m/S 753 mmHg 35%
    04:00 +19°C° 0 mm 1 m/S 753 mmHg 35%
    05:00 +18°C° 0 mm 1 m/S 754 mmHg 35%
    06:00 +19°C° 0 mm 2 m/S 754 mmHg 33%
    07:00 +20°C° 0 mm 2 m/S 754 mmHg 30%
    08:00 +21°C° 0 mm 2 m/S 755 mmHg 27%
    09:00 +24°C° 0 mm 2 m/S 754 mmHg 25%
    10:00 +26°C° 0 mm 2 m/S 754 mmHg 22%
    11:00 +27°C° 0 mm 2 m/S 754 mmHg 20%
    12:00 +28°C° 0 mm 2 m/S 753 mmHg 18%
    13:00 +29°C° 0 mm 2 m/S 753 mmHg 16%
    14:00 +30°C° 0 mm 2 m/S 752 mmHg 14%
    15:00 +29°C° 0 mm 2 m/S 752 mmHg 14%
    16:00 +28°C° 0 mm 2 m/S 752 mmHg 15%
    17:00 +26°C° 0 mm 2 m/S 752 mmHg 16%
    18:00 +26°C° 0 mm 2 m/S 752 mmHg 17%
    19:00 +25°C° 0 mm 2 m/S 752 mmHg 18%
    20:00 +24°C° 0 mm 3 m/S 753 mmHg 19%
    21:00 +23°C° 0 mm 2 m/S 753 mmHg 20%
    22:00 +21°C° 0 mm 2 m/S 753 mmHg 21%
    23:00 +20°C° 0 mm 2 m/S 753 mmHg 23%
    Mehr zeigen